Wind_Speed
4 2 1 1 1 0 2 2 2 3 6 8 9 9 6 5 4 2 1 3 5 7 10 11 13 13 11 10 11 13 14 17 20 19 16 14 12 11 10 9 9 9 7 6 7 7 4 6 9
2 1 0 2 3 3 0 1 2 4 7 9 8 7 6 6 5 4 1 1 2 4 5 8 10 11 12 10 10 11 13 16 19 19 17 15 13 12 11 10 12 12 10 8 8 7 5 2 8
1 3 3 3 5 2 2 2 2 2 5 7 8 7 6 7 7 6 4 3 3 2 2 4 8 8 10 10 9 9 10 14 17 18 16 15 15 14 13 12 13 14 13 10 8 7 5 1 7
3 4 3 5 5 2 1 4 2 1 3 4 5 7 8 8 7 7 6 5 5 4 3 2 4 5 7 8 7 7 7 10 14 16 15 15 15 15 15 14 13 13 12 11 8 6 6 2 5
5 4 0 2 4 3 3 5 4 4 1 4 4 6 8 9 9 8 6 5 5 5 5 3 1 3 5 6 5 4 4 6 9 13 15 15 16 17 17 16 13 11 10 10 9 7 7 5 2
7 6 4 7 4 2 2 2 4 5 1 4 5 4 6 8 9 9 8 6 5 6 6 5 3 2 2 4 4 3 1 2 4 8 12 14 15 17 18 17 15 12 11 10 9 7 6 5 1
11 9 7 5 7 7 6 3 1 2 4 5 6 6 5 5 7 8 8 7 6 7 8 7 6 5 2 1 3 2 1 1 2 4 8 11 12 13 15 17 17 14 11 10 9 7 4 3 2
12 12 9 9 10 7 6 4 4 3 6 6 7 8 7 6 6 7 8 8 8 9 10 9 9 8 6 4 1 2 2 3 5 5 7 7 8 8 10 13 15 14 11 9 8 7 3 1 4
13 13 12 12 10 10 7 5 6 5 5 6 7 8 9 9 9 9 9 9 9 9 10 10 10 10 9 8 6 4 4 5 7 8 9 7 5 6 6 7 9 11 11 10 9 7 5 5 6
13 12 13 13 13 11 9 7 8 9 9 10 11 11 11 13 13 12 11 11 10 9 9 9 11 12 12 10 8 8 7 7 9 10 10 9 7 6 6 5 6 7 8 8 8 6 5 6 8
13 13 13 13 15 14 13 14 11 10 10 12 14 15 15 16 17 17 15 14 12 10 10 10 10 12 13 12 10 9 9 10 11 12 13 12 10 8 7 6 6 6 7 6 6 5 5 7 9
16 16 16 15 15 14 16 19 20 17 15 16 17 18 17 17 19 20 21 19 16 13 11 10 12 13 13 14 12 12 12 12 14 15 15 15 14 11 10 10 8 8 8 6 6 4 5 7 9
20 20 20 17 17 17 17 20 22 21 21 20 21 22 20 18 17 20 20 22 22 18 15 11 11 11 13 15 15 15 14 15 16 16 17 16 17 14 13 13 13 12 11 8 8 5 6 9 10
23 22 23 22 21 22 22 23 23 23 24 25 25 25 24 20 16 19 21 21 23 22 17 15 12 12 14 15 16 16 16 17 17 17 18 18 18 16 14 15 17 17 15 12 9 7 8 10 11
28 27 27 27 28 30 29 28 29 29 28 30 30 29 27 23 20 20 20 22 23 22 22 19 16 16 17 19 20 20 19 18 18 17 18 18 18 17 16 17 19 20 18 17 17 16 16 13 13
31 31 32 31 33 34 35 33 34 35 35 34 34 33 31 28 26 23 22 24 24 23 24 23 19 18 19 21 20 18 17 16 17 18 18 17 17 16 18 18 19 20 19 21 22 23 23 19 15
35 36 36 37 37 38 39 38 38 40 40 39 38 38 36 35 31 26 22 21 22 24 25 27 25 20 19 20 19 16 16 18 17 16 16 16 17 18 18 18 19 19 22 25 27 26 24 21 21
36 38 40 41 41 42 43 43 42 45 47 45 44 44 42 40 37 31 26 23 22 25 27 30 31 25 22 23 24 23 21 19 17 14 16 18 18 18 19 18 21 22 24 27 31 29 25 25 26
37 39 39 40 41 42 43 43 45 47 48 47 47 48 47 44 41 35 31 29 27 27 25 26 29 28 25 24 26 25 21 20 19 18 19 19 20 19 19 21 22 24 26 28 29 29 26 26 26
36 37 37 38 40 40 40 40 43 44 46 47 46 46 45 43 41 38 33 32 32 30 28 27 29 32 29 26 25 25 22 21 22 22 22 23 23 22 22 24 24 26 29 28 26 26 24 25 26
35 36 37 39 38 38 39 39 40 42 44 45 45 44 44 42 39 36 33 31 32 37 32 29 31 36 36 32 27 27 26 26 26 24 25 26 25 25 26 26 26 27 26 23 23 24 25 25 24
34 35 36 36 36 35 36 37 35 35 37 40 42 42 41 39 39 39 37 34 30 36 36 36 36 37 43 41 34 32 29 27 26 27 26 27 28 28 28 26 24 23 22 22 21 24 27 25 25
38 38 38 39 39 39 37 39 38 37 38 36 35 36 37 37 37 36 37 36 34 37 37 40 44 44 46 40 35 33 31 25 24 28 28 29 29 28 28 25 25 23 20 21 22 25 28 27 28
43 44 45 48 46 45 43 43 42 41 39 36 32 30 32 33 34 34 36 37 37 41 44 44 48 46 47 38 32 32 29 24 25 29 29 28 29 29 29 26 25 21 22 23 23 27 27 26 29
47 49 52 54 53 52 49 48 44 40 36 32 29 27 30 34 35 35 36 36 37 39 44 49 49 48 48 41 35 33 28 25 26 29 30 30 31 31 28 28 28 26 26 23 25 29 28 26 28
51 51 49 51 51 51 49 45 41 38 34 31 26 24 25 33 37 37 39 41 41 41 41 48 47 45 52 43 33 30 25 24 27 32 31 29 30 28 30 32 33 30 28 25 25 29 28 25 24
50 46 43 39 36 36 34 33 32 32 32 32 27 24 22 26 33 36 37 41 39 40 43 48 49 47 49 44 35 26 22 25 26 28 28 28 27 28 32 34 34 33 29 24 23 24 23 22 20
28 24 16 11 12 12 10 11 12 16 20 23 22 19 18 20 23 28 35 35 39 36 34 33 34 27 17 22 22 21 25 24 22 25 25 28 29 31 34 34 34 33 28 24 22 23 21 19 16
15 16 7 2 3 3 7 8 6 9 16 15 12 15 11 10 13 18 28 33 36 43 26 25 18 8 11 12 15 22 25 21 19 21 25 29 30 31 32 29 28 25 23 23 23 22 21 19 16
17 13 8 6 6 6 7 12 5 2 7 7 7 12 7 5 0 4 4 12 6 11 5 9 13 12 10 10 17 21 23 22 21 21 19 20 23 24 25 28 24 18 17 20 22 22 20 19 16
Wind_Direction
83 71 304 252 262 356 43 31 1 11 27 30 31 27 14 356 340 348 75 55 30 39 48 38 35 46 56 60 57 49 44 39 39 41 46 50 53 53 54 53 37 29 24 27 20 6 347 225 223
58 68 316 312 297 259 263 357 5 18 22 15 13 12 5 352 334 316 291 8 10 16 38 39 31 38 48 51 50 49 43 38 37 39 45 51 52 50 47 42 33 32 26 16 13 5 4 194 194
94 100 70 33 20 4 258 271 311 35 27 18 6 359 349 339 335 327 301 271 279 298 347 31 29 31 48 50 49 49 44 38 36 38 43 50 51 48 45 37 29 29 29 22 12 360 352 184 195
188 158 81 54 40 59 244 259 250 308 4 4 359 358 352 349 338 325 313 291 280 274 274 339 20 23 41 44 45 47 42 38 38 41 44 48 50 46 42 37 30 28 29 29 27 18 21 32 184
216 207 226 33 55 24 280 263 263 266 359 22 360 348 348 353 351 343 325 302 276 260 256 277 325 6 33 37 44 56 45 41 38 41 45 48 48 45 41 38 33 33 32 25 27 31 37 41 187
240 237 270 253 241 348 12 264 263 263 42 46 23 350 340 345 345 345 339 318 289 269 257 251 247 305 11 28 35 49 46 46 26 37 43 47 49 46 43 40 37 36 33 22 13 21 34 42 158
241 238 243 245 258 308 331 314 268 330 7 34 23 2 347 345 345 346 345 330 309 291 271 254 241 243 270 336 24 30 283 278 312 0 27 39 47 48 43 38 36 33 32 29 17 3 15 42 100
244 247 244 257 283 306 315 303 295 320 344 5 22 8 358 345 343 349 346 336 318 302 284 264 245 239 235 240 260 18 330 288 292 320 344 6 31 43 42 38 36 31 23 19 12 354 325 217 186
250 255 265 271 274 289 300 304 289 280 305 334 351 357 355 344 339 330 330 333 325 310 293 272 253 246 241 234 237 261 302 318 315 317 323 331 0 18 21 27 33 27 18 11 6 341 316 268 231
250 250 266 280 281 283 292 290 276 288 302 313 316 322 340 336 334 324 314 311 317 312 298 278 258 252 250 247 252 265 281 299 309 312 317 316 323 341 348 349 14 10 8 10 7 347 297 264 253
257 256 261 269 277 280 287 283 286 296 293 293 303 309 328 332 327 322 316 308 306 308 304 291 274 261 257 254 256 265 278 284 290 300 310 313 310 312 321 332 1 351 342 352 14 2 316 269 251
257 262 262 262 267 270 274 278 283 289 288 288 295 300 312 323 323 319 316 311 302 298 295 291 276 264 254 251 253 261 272 282 289 293 300 307 310 307 310 322 336 336 337 346 354 354 318 282 259
254 260 263 264 265 261 266 277 283 284 285 285 290 295 304 314 317 310 311 310 305 297 287 284 285 269 256 250 252 261 275 290 293 294 297 306 311 309 299 305 316 320 325 338 337 335 312 293 273
256 256 260 264 265 261 262 271 277 279 281 281 285 291 297 305 310 306 302 301 299 295 285 272 272 272 264 258 256 260 274 284 288 292 298 301 307 310 295 299 310 313 313 315 316 301 304 294 283
256 257 258 260 261 262 265 267 270 272 274 278 280 284 288 293 299 306 303 301 294 290 284 276 268 268 267 265 265 267 272 274 275 281 287 292 298 307 303 300 306 305 301 311 321 313 304 294 276
257 259 260 261 263 265 267 269 271 272 271 273 276 276 277 281 287 291 292 295 291 281 278 276 269 269 272 272 273 272 267 267 273 279 283 289 293 300 298 295 298 293 289 301 310 303 298 294 281
265 266 266 266 268 270 271 272 274 274 272 270 270 271 272 273 277 276 277 278 276 271 273 277 275 273 275 276 276 272 267 267 271 275 281 286 289 288 281 285 286 281 283 288 292 290 286 290 287
267 268 268 268 268 269 270 271 271 269 268 267 266 266 267 269 271 269 267 262 259 257 264 274 274 269 268 271 272 268 263 262 259 264 276 280 277 270 271 281 280 278 279 282 286 287 286 286 286
266 267 267 268 268 267 267 267 266 266 268 268 268 268 269 269 269 267 264 257 246 247 255 264 267 266 262 262 264 263 256 251 249 258 272 271 266 265 271 278 277 274 279 280 280 286 287 286 283
267 267 269 270 269 269 269 269 270 270 269 267 264 264 265 267 267 264 260 259 246 245 241 247 260 263 258 253 254 256 251 249 253 261 266 267 266 262 267 274 278 277 278 277 277 276 275 278 277
268 269 269 269 269 271 273 273 275 276 275 273 269 264 263 261 258 257 254 252 240 243 237 242 254 256 250 242 235 239 244 250 250 248 255 259 262 265 269 273 278 279 278 274 270 271 274 272 271
269 268 268 268 269 271 274 273 274 278 279 277 271 266 262 260 256 253 253 254 241 228 227 245 249 253 257 244 223 226 235 236 241 249 251 250 257 265 275 280 283 278 272 269 269 269 270 273 272
270 268 269 268 269 271 276 278 277 279 278 277 274 266 258 255 254 251 246 247 237 230 236 247 251 252 249 236 219 221 226 230 241 250 253 257 260 269 276 278 278 276 273 275 276 272 272 275 274
278 279 279 278 278 279 282 285 285 285 282 277 271 265 254 245 246 244 239 241 243 242 240 242 249 251 247 240 235 228 223 226 237 251 259 261 264 269 270 272 276 283 283 282 281 275 276 281 279
286 287 287 285 283 284 284 285 285 284 277 271 265 258 249 239 237 239 237 237 246 246 248 247 245 247 250 249 227 227 224 231 242 250 252 258 266 272 277 281 284 285 282 287 288 282 283 282 277
287 287 287 285 283 282 281 281 280 278 271 265 261 257 251 238 238 239 239 240 248 250 251 242 240 249 249 240 223 235 248 248 245 242 247 261 271 279 285 287 287 288 290 292 289 283 284 282 281
292 293 289 285 283 279 275 275 271 263 255 256 261 259 256 245 242 246 248 246 247 247 241 244 243 242 244 237 236 251 253 247 246 252 259 268 276 283 284 284 288 289 288 285 286 288 289 287 289
303 301 301 299 287 279 258 242 238 218 229 245 256 255 253 263 264 259 249 250 250 248 246 256 249 250 222 211 238 241 242 251 261 271 277 281 288 287 284 286 286 280 278 279 283 285 280 276 278
342 341 350 101 142 66 70 96 149 212 244 256 252 238 244 288 309 299 265 258 261 252 279 272 255 223 178 192 230 234 243 259 273 281 283 282 280 280 286 286 280 279 281 282 282 277 278 274 262
13 11 35 94 109 101 103 61 62 240 273 268 226 219 221 245 82 47 284 245 190 221 226 157 151 156 179 223 240 252 259 269 284 289 291 303 302 292 291 282 279 284 285 278 274 273 270 264 261
Height
5895 5895 5896 5898 5899 5899 5898 5897 5897 5897 5895 5895 5895 5895 5895 5895 5896 5898 5898 5897 5898 5898 5897 5896 5895 5895 5895 5895 5894 5894 5894 5893 5891 5890 5889 5888 5888 5887 5887 5886 5885 5885 5885 5884 5883 5882 5881 5881 5882
5896 5897 5898 5897 5897 5898 5899 5898 5897 5896 5896 5895 5894 5894 5895 5895 5895 5896 5896 5897 5898 5898 5898 5898 5897 5896 5896 5895 5895 5895 5895 5894 5892 5891 5891 5889 5889 5888 5888 5887 5886 5885 5884 5884 5884 5883 5881 5880 5881
5896 5898 5899 5897 5896 5897 5899 5899 5898 5896 5896 5896 5895 5894 5895 5895 5896 5896 5897 5897 5898 5898 5899 5899 5898 5897 5896 5896 5896 5895 5895 5895 5893 5892 5892 5891 5890 5889 5888 5887 5886 5885 5884 5883 5884 5883 5881 5880 5880
5896 5898 5899 5898 5896 5897 5898 5899 5898 5898 5898 5897 5896 5895 5894 5895 5895 5896 5896 5897 5897 5898 5899 5899 5899 5898 5897 5896 5896 5896 5896 5896 5895 5893 5892 5891 5890 5889 5888 5887 5886 5885 5884 5884 5883 5883 5882 5880 5881
5896 5897 5898 5897 5897 5898 5899 5899 5899 5897 5897 5897 5896 5895 5894 5894 5894 5895 5895 5895 5896 5897 5898 5899 5899 5898 5897 5896 5896 5896 5896 5896 5896 5895 5893 5891 5890 5889 5888 5887 5886 5885 5885 5884 5883 5883 5882 5881 5881
5896 5898 5898 5897 5898 5899 5899 5900 5899 5899 5896 5896 5895 5895 5895 5894 5894 5894 5893 5894 5895 5896 5897 5898 5898 5898 5897 5897 5896 5896 5896 5896 5896 5895 5894 5892 5890 5889 5888 5886 5886 5886 5885 5884 5883 5882 5882 5881 5881
5896 5897 5897 5898 5898 5899 5900 5901 5900 5899 5897 5896 5895 5895 5894 5894 5894 5893 5893 5893 5893 5894 5895 5896 5897 5897 5897 5897 5897 5896 5896 5896 5896 5895 5894 5893 5892 5890 5888 5887 5886 5885 5884 5884 5883 5882 5881 5882 5881
5894 5897 5898 5899 5899 5899 5899 5899 5899 5899 5898 5897 5896 5896 5895 5894 5893 5893 5893 5893 5893 5893 5894 5895 5895 5895 5896 5896 5896 5895 5896 5896 5896 5896 5895 5894 5893 5891 5889 5887 5886 5885 5883 5882 5882 5881 5882 5881 5881
5894 5897 5897 5897 5898 5898 5899 5899 5898 5898 5897 5897 5896 5896 5895 5894 5893 5892 5893 5893 5893 5892 5893 5893 5894 5895 5895 5895 5895 5895 5896 5896 5896 5896 5895 5894 5893 5891 5889 5887 5886 5884 5883 5882 5881 5881 5881 5882 5882
5893 5895 5896 5896 5896 5896 5897 5898 5898 5897 5897 5897 5897 5896 5895 5894 5893 5892 5892 5892 5892 5891 5891 5891 5892 5893 5894 5894 5895 5895 5895 5895 5895 5895 5894 5893 5892 5891 5889 5886 5885 5883 5882 5880 5880 5879 5879 5880 5881
5891 5894 5894 5894 5894 5894 5895 5895 5895 5896 5896 5897 5897 5895 5894 5893 5892 5892 5892 5891 5890 5889 5888 5889 5890 5891 5892 5893 5894 5893 5893 5893 5892 5892 5892 5892 5892 5891 5889 5886 5885 5883 5881 5880 5879 5878 5878 5879 5880
5888 5890 5891 5891 5892 5892 5892 5891 5892 5894 5895 5895 5894 5893 5892 5892 5891 5891 5890 5889 5889 5888 5887 5886 5886 5888 5889 5890 5891 5890 5890 5890 5890 5889 5890 5890 5890 5890 5889 5887 5885 5883 5881 5880 5879 5879 5877 5877 5877
5885 5886 5886 5887 5888 5889 5889 5888 5888 5890 5890 5891 5891 5891 5891 5891 5890 5888 5887 5886 5886 5887 5886 5885 5885 5885 5886 5887 5888 5888 5888 5888 5888 5888 5888 5887 5887 5887 5886 5885 5884 5883 5881 5881 5880 5878 5875 5875 5874
5881 5882 5882 5882 5883 5884 5884 5884 5885 5886 5886 5886 5886 5887 5888 5889 5889 5886 5884 5883 5883 5883 5883 5882 5882 5882 5883 5884 5885 5885 5885 5885 5886 5885 5885 5884 5883 5883 5883 5882 5881 5880 5879 5878 5877 5876 5875 5874 5874
5876 5877 5878 5878 5878 5877 5878 5880 5879 5880 5880 5880 5881 5882 5883 5883 5884 5883 5882 5880 5880 5881 5880 5879 5878 5879 5879 5880 5881 5880 5881 5881 5881 5881 5881 5880 5880 5880 5879 5878 5876 5876 5875 5874 5873 5872 5871 5870 5869
5870 5870 5871 5871 5870 5870 5873 5875 5874 5873 5874 5874 5874 5874 5876 5877 5878 5879 5878 5877 5875 5876 5877 5876 5874 5874 5875 5875 5876 5876 5876 5877 5878 5877 5876 5875 5875 5876 5875 5873 5872 5871 5870 5870 5869 5868 5866 5864 5864
5865 5864 5864 5865 5864 5864 5864 5867 5867 5865 5866 5867 5867 5867 5867 5868 5870 5872 5873 5872 5870 5871 5871 5871 5871 5871 5871 5871 5871 5872 5873 5873 5873 5872 5872 5871 5870 5870 5869 5868 5867 5867 5866 5865 5864 5863 5861 5860 5859
5858 5857 5856 5856 5856 5856 5856 5858 5858 5853 5853 5856 5857 5858 5859 5859 5861 5863 5865 5866 5865 5865 5866 5867 5867 5867 5866 5867 5867 5867 5867 5869 5868 5867 5866 5866 5867 5866 5864 5864 5863 5862 5861 5859 5857 5855 5855 5855 5854
5850 5848 5847 5846 5845 5847 5846 5848 5845 5842 5845 5847 5848 5848 5850 5852 5853 5855 5857 5858 5859 5859 5860 5861 5861 5861 5861 5862 5861 5861 5862 5863 5862 5861 5860 5861 5860 5860 5858 5858 5857 5856 5855 5853 5851 5849 5849 5849 5849
5841 5839 5838 5837 5836 5836 5836 5837 5835 5834 5834 5835 5837 5838 5840 5843 5845 5848 5850 5850 5851 5852 5853 5855 5855 5855 5855 5855 5855 5856 5855 5856 5855 5855 5854 5854 5855 5855 5855 5853 5853 5853 5850 5848 5847 5845 5843 5842 5843
5833 5832 5830 5828 5827 5827 5827 5828 5827 5825 5824 5824 5825 5828 5829 5832 5834 5838 5840 5840 5840 5844 5846 5847 5846 5845 5844 5844 5846 5847 5847 5848 5848 5848 5848 5848 5849 5850 5851 5849 5849 5847 5844 5843 5840 5838 5838 5836 5836
5827 5824 5822 5819 5819 5818 5818 5818 5819 5817 5815 5814 5815 5817 5819 5822 5825 5829 5831 5834 5834 5835 5836 5838 5839 5837 5836 5835 5833 5834 5836 5838 5841 5841 5844 5845 5843 5843 5844 5843 5841 5840 5838 5837 5835 5833 5832 5831 5830
5818 5815 5812 5810 5808 5809 5808 5806 5809 5808 5807 5807 5806 5807 5810 5814 5817 5820 5822 5825 5827 5828 5828 5830 5830 5829 5826 5827 5827 5827 5828 5832 5834 5835 5839 5841 5839 5839 5838 5835 5834 5833 5833 5834 5832 5829 5828 5827 5825
5805 5802 5799 5797 5796 5797 5797 5795 5797 5799 5798 5799 5799 5800 5802 5805 5808 5811 5813 5815 5818 5819 5818 5816 5819 5820 5822 5821 5824 5824 5823 5825 5828 5830 5833 5835 5834 5832 5831 5827 5828 5828 5827 5827 5826 5822 5820 5820 5819
5794 5791 5786 5783 5783 5784 5785 5784 5786 5789 5790 5790 5790 5792 5794 5796 5799 5801 5803 5806 5807 5807 5806 5806 5807 5810 5814 5817 5817 5818 5817 5819 5823 5826 5826 5826 5826 5826 5826 5824 5823 5822 5821 5819 5818 5816 5814 5812 5812
5781 5778 5775 5770 5769 5769 5770 5772 5776 5780 5781 5782 5782 5785 5787 5788 5791 5793 5794 5796 5796 5794 5797 5798 5801 5804 5807 5812 5811 5813 5810 5810 5814 5817 5819 5819 5821 5820 5820 5819 5817 5816 5816 5813 5811 5809 5808 5808 5806
5762 5760 5755 5753 5752 5754 5757 5760 5762 5767 5771 5773 5776 5779 5781 5781 5783 5786 5787 5786 5786 5786 5786 5791 5795 5798 5801 5808 5810 5808 5804 5806 5809 5813 5814 5815 5815 5814 5812 5811 5810 5809 5808 5805 5804 5803 5803 5804 5801
5747 5744 5742 5741 5742 5744 5747 5749 5753 5757 5761 5765 5770 5774 5776 5776 5776 5777 5777 5779 5779 5780 5783 5782 5785 5786 5789 5794 5799 5799 5800 5804 5805 5808 5809 5808 5807 5808 5808 5804 5802 5802 5799 5796 5796 5797 5794 5795 5794
5745 5741 5738 5740 5742 5745 5746 5751 5753 5755 5759 5763 5767 5770 5773 5775 5774 5771 5771 5776 5772 5772 5774 5775 5776 5780 5786 5789 5791 5792 5796 5798 5797 5797 5798 5799 5800 5802 5799 5795 5793 5789 5787 5789 5791 5790 5791 5789 5789
5748 5743 5741 5741 5744 5747 5748 5754 5753 5756 5758 5762 5764 5767 5771 5773 5772 5770 5767 5771 5770 5770 5774 5774 5775 5781 5785 5786 5787 5791 5793 5792 5792 5792 5795 5794 5793 5792 5789 5787 5783 5779 5778 5781 5784 5784 5784 5785 5784